Weather History for KOZW - October, 2010

Change the Weather History Date:

Tuesday, October 26, 2010

  Actual Average Record
Temperature  
Mean Temperature 64 °F -  
Max Temperature 68 °F 55 °F 73 °F (2000)
Min Temperature 60 °F 38 °F 28 °F (2006)
Degree Days  
Heating Degree Days 1    
Growing Degree Days 14 (Base 50)    
Moisture  
Dew Point 56 °F    
Average Humidity 78    
Maximum Humidity 94    
Minimum Humidity 48    
Precipitation  
Precipitation 0.00 in - - ()
Sea Level Pressure  
Sea Level Pressure 29.37 in    
Wind  
Wind Speed 14 mph (SSE)    
Max Wind Speed 25 mph    
Max Gust Speed 40 mph    
Visibility 10 miles    
Events Rain    
Averages and records for this station are not official NWS values.
T = Trace of Precipitation, MM = Missing Value Source: NWS Daily Summary

Daily Weather History Graph

Daily Weather History Graph

Search for Another Location

Airport or City:

Trip Planner

Search our weather history database for the weather conditions in past years. The results will help you decide how hot, cold, wet, or windy it might be!

Date:

Astronomy

Oct. 26, 2010 Rise Set
Actual Time 8:02 AM EDT 6:36 PM EDT
Civil Twilight 7:33 AM EDT 7:05 PM EDT
Nautical Twilight 7:00 AM EDT 7:38 PM EDT
Astronomical Twilight 6:27 AM EDT 8:11 PM EDT
Moon 8:52 PM EDT (10/26) 11:47 AM EDT (10/26)
Length of Visible Light 11h 32m
Length of Day
10h 34m
Waning Gibbous, 87% of the Moon is Illuminated
Oct 26
Waning Gibbous
Oct 30
Last Quarter
Nov 6
New
Nov 13
First Quarter
Nov 21
Full

Hourly Weather History & Observations

Time (EDT) Temp. Dew Point Humidity Pressure Visibility Wind Dir Wind Speed Gust Speed Precip Events Conditions
12:15 AM 62.6 °F 55.4 °F 77% 29.59 in 10.0 mi SSE 8.1 mph - N/A   Scattered Clouds
12:35 AM 60.8 °F 55.4 °F 82% 29.58 in 10.0 mi SSE 10.4 mph - N/A   Scattered Clouds
12:55 AM 60.8 °F 55.4 °F 82% 29.57 in 10.0 mi SSE 11.5 mph - N/A   Clear
1:15 AM 60.8 °F 55.4 °F 82% 29.57 in 10.0 mi SSE 10.4 mph - N/A   Clear
1:35 AM 60.8 °F 55.4 °F 82% 29.56 in 10.0 mi South 10.4 mph 16.1 mph N/A   Clear
1:55 AM 60.8 °F 55.4 °F 82% 29.56 in 10.0 mi SSE 10.4 mph - N/A   Clear
2:15 AM 60.8 °F 55.4 °F 82% 29.56 in 10.0 mi SSE 10.4 mph - N/A   Clear
2:35 AM 60.8 °F 55.4 °F 82% 29.55 in 10.0 mi SSE 10.4 mph 16.1 mph N/A   Clear
2:55 AM 60.8 °F 55.4 °F 82% 29.53 in 10.0 mi SSE 11.5 mph 16.1 mph N/A   Clear
3:15 AM 60.8 °F 55.4 °F 82% 29.53 in 10.0 mi SSE 11.5 mph 17.3 mph N/A   Scattered Clouds
3:35 AM 60.8 °F 55.4 °F 82% 29.51 in 10.0 mi SSE 12.7 mph 17.3 mph N/A   Scattered Clouds
3:55 AM 60.8 °F 55.4 °F 82% 29.50 in 10.0 mi SSE 11.5 mph - N/A   Clear
4:15 AM 60.8 °F 55.4 °F 82% 29.48 in 10.0 mi SSE 12.7 mph - N/A   Clear
4:35 AM 60.8 °F 55.4 °F 82% 29.47 in 10.0 mi SSE 16.1 mph 19.6 mph N/A   Clear
4:55 AM 62.6 °F 55.4 °F 77% 29.46 in 10.0 mi SSE 15.0 mph - N/A   Clear
5:15 AM 62.6 °F 55.4 °F 77% 29.45 in 10.0 mi SSE 15.0 mph 24.2 mph N/A   Clear
5:35 AM 62.6 °F 55.4 °F 77% 29.44 in 10.0 mi SSE 16.1 mph 21.9 mph N/A   Clear
5:55 AM 62.6 °F 55.4 °F 77% 29.43 in 10.0 mi SE 15.0 mph 28.8 mph N/A   Clear
6:15 AM 62.6 °F 55.4 °F 77% 29.42 in 10.0 mi SE 16.1 mph 23.0 mph N/A   Clear
6:35 AM 60.8 °F 55.4 °F 82% 29.41 in 10.0 mi SE 12.7 mph 24.2 mph N/A   Clear
6:55 AM 60.8 °F 55.4 °F 82% 29.40 in 10.0 mi SE 13.8 mph - N/A   Clear
7:15 AM 60.8 °F 55.4 °F 82% 29.39 in 10.0 mi SE 16.1 mph 20.7 mph N/A   Clear
7:35 AM 60.8 °F 55.4 °F 82% 29.39 in 10.0 mi SSE 13.8 mph 21.9 mph N/A   Mostly Cloudy
7:55 AM 62.6 °F 55.4 °F 77% 29.38 in 10.0 mi SE 17.3 mph 25.3 mph N/A   Overcast
8:15 AM 62.6 °F 57.2 °F 82% 29.37 in 10.0 mi SE 19.6 mph 24.2 mph N/A   Overcast
8:35 AM 62.6 °F 57.2 °F 82% 29.36 in 10.0 mi SSE 16.1 mph 25.3 mph N/A   Overcast
8:55 AM 62.6 °F 59.0 °F 88% 29.34 in 10.0 mi SSE 18.4 mph 24.2 mph N/A   Overcast
9:35 AM 64.4 °F 59.0 °F 83% 29.32 in 10.0 mi SSE 21.9 mph 29.9 mph N/A   Overcast
9:55 AM 66.2 °F 59.0 °F 78% 29.31 in 10.0 mi SSE 25.3 mph 31.1 mph N/A   Mostly Cloudy
10:15 AM 66.2 °F 59.0 °F 78% 29.29 in 10.0 mi SSE 24.2 mph 36.8 mph N/A   Mostly Cloudy
10:35 AM 68.0 °F 60.8 °F 78% 29.28 in 10.0 mi SSE 20.7 mph 29.9 mph N/A   Overcast
10:55 AM 68.0 °F 60.8 °F 78% 29.26 in 10.0 mi SSE 24.2 mph 33.4 mph N/A   Overcast
11:15 AM 68.0 °F 60.8 °F 78% 29.25 in 10.0 mi SSE 20.7 mph 33.4 mph N/A   Overcast
11:35 AM 68.0 °F 60.8 °F 78% 29.23 in 10.0 mi SSE 20.7 mph 38.0 mph N/A   Overcast
11:55 AM 68.0 °F 60.8 °F 78% 29.23 in 10.0 mi SSE 20.7 mph 28.8 mph N/A Rain Light Rain
12:15 PM 68.0 °F 60.8 °F 78% 29.22 in 7.0 mi SSE 18.4 mph 29.9 mph N/A Rain Rain
12:35 PM 66.2 °F 62.6 °F 88% 29.20 in 5.0 mi SSE 16.1 mph 25.3 mph N/A Rain Rain
12:55 PM 62.6 °F 59.0 °F 88% 29.24 in 0.8 mi SW 23.0 mph 36.8 mph N/A Rain Heavy Rain
1:15 PM 60.8 °F 59.0 °F 94% 29.23 in 10.0 mi SW 11.5 mph 17.3 mph N/A Rain Light Rain
1:35 PM 62.6 °F 60.8 °F 94% 29.23 in 7.0 mi South 3.5 mph - N/A Rain Light Rain
1:55 PM 64.4 °F 62.6 °F 94% 29.21 in 10.0 mi South 11.5 mph 17.3 mph N/A   Light Drizzle
2:15 PM 64.4 °F 60.8 °F 88% 29.21 in 10.0 mi South 19.6 mph 26.5 mph N/A   Overcast
2:35 PM 64.4 °F 59.0 °F 83% 29.24 in 10.0 mi SSW 15.0 mph 26.5 mph N/A   Overcast
2:55 PM 64.4 °F 51.8 °F 64% 29.23 in 10.0 mi SSW 24.2 mph 40.3 mph N/A   Mostly Cloudy
3:15 PM 62.6 °F 50.0 °F 63% 29.26 in 10.0 mi SW 18.4 mph 33.4 mph N/A   Scattered Clouds
3:35 PM 60.8 °F 50.0 °F 68% 29.25 in 10.0 mi SW 13.8 mph 26.5 mph N/A   Scattered Clouds
3:55 PM 62.6 °F 50.0 °F 63% 29.27 in 10.0 mi SW 18.4 mph 26.5 mph N/A   Scattered Clouds
4:15 PM 62.6 °F 46.4 °F 55% 29.28 in 10.0 mi SW 19.6 mph 27.6 mph N/A   Scattered Clouds
4:35 PM 62.6 °F 46.4 °F 55% 29.29 in 10.0 mi SW 19.6 mph 26.5 mph N/A   Scattered Clouds
4:55 PM 62.6 °F 42.8 °F 48% 29.31 in 10.0 mi SW 20.7 mph 31.1 mph N/A   Scattered Clouds
5:15 PM 62.6 °F 42.8 °F 48% 29.32 in 10.0 mi SW 20.7 mph 31.1 mph N/A   Scattered Clouds
5:35 PM 60.8 °F 41.0 °F 48% 29.33 in 10.0 mi SW 18.4 mph 27.6 mph N/A   Clear
5:55 PM 60.8 °F 41.0 °F 48% 29.33 in 10.0 mi SW 13.8 mph 26.5 mph N/A   Clear
6:15 PM 60.8 °F 41.0 °F 48% 29.35 in 10.0 mi SW 18.4 mph 26.5 mph N/A   Scattered Clouds
6:35 PM 60.8 °F 39.2 °F 45% 29.37 in 10.0 mi SSW 13.8 mph 21.9 mph N/A   Mostly Cloudy
6:55 PM 59.0 °F 39.2 °F 48% 29.38 in 10.0 mi SW 15.0 mph 26.5 mph N/A   Mostly Cloudy
7:15 PM 59.0 °F 37.4 °F 45% 29.40 in 10.0 mi SSW 18.4 mph 25.3 mph N/A   Mostly Cloudy
7:35 PM 59.0 °F 37.4 °F 45% 29.41 in 10.0 mi SSW 13.8 mph 19.6 mph N/A   Scattered Clouds
7:55 PM 59.0 °F 37.4 °F 45% 29.42 in 10.0 mi SSW 12.7 mph 20.7 mph N/A   Scattered Clouds
8:15 PM 57.2 °F 37.4 °F 48% 29.43 in 10.0 mi SSW 10.4 mph 17.3 mph N/A   Scattered Clouds
8:35 PM 57.2 °F 39.2 °F 51% 29.43 in 10.0 mi SSW 11.5 mph 18.4 mph N/A   Mostly Cloudy
8:55 PM 57.2 °F 39.2 °F 51% 29.44 in 10.0 mi SSW 11.5 mph 17.3 mph N/A   Scattered Clouds
9:15 PM 57.2 °F 39.2 °F 51% 29.46 in 10.0 mi SSW 9.2 mph - N/A   Scattered Clouds
9:35 PM 57.2 °F 39.2 °F 51% 29.46 in 10.0 mi SSW 13.8 mph 21.9 mph N/A   Mostly Cloudy
9:55 PM 59.0 °F 39.2 °F 48% 29.48 in 10.0 mi SSW 19.6 mph 27.6 mph N/A   Overcast
10:15 PM 59.0 °F 37.4 °F 45% 29.49 in 10.0 mi SSW 18.4 mph 27.6 mph N/A   Overcast
10:35 PM 59.0 °F 37.4 °F 45% 29.50 in 10.0 mi SW 20.7 mph 38.0 mph N/A   Overcast
10:55 PM 59.0 °F 37.4 °F 45% 29.51 in 10.0 mi SW 16.1 mph 31.1 mph N/A   Overcast
11:15 PM 59.0 °F 37.4 °F 45% 29.53 in 10.0 mi SW 18.4 mph 32.2 mph N/A   Overcast
11:35 PM 57.2 °F 37.4 °F 48% 29.53 in 10.0 mi SW 17.3 mph 31.1 mph N/A   Mostly Cloudy
11:55 PM 57.2 °F 37.4 °F 48% 29.54 in 10.0 mi SW 17.3 mph 23.0 mph N/A   Overcast